This demonstration page uses our WeatherBlox Daily Observations layout. Learn more.

Hourly Observations for January 7, 2017

Temp ( °F °C ) Dew Point ( °F °C ) Humidity (%) Winds ( mph kmh ) Pressure ( in mb ) Visibility ( mi km ) Precip ( " mm )
12:54 am 00:54 Clear 4 -15.6 -1 -18.3 80 80 S 3 6 30.47 1032 10 16.0934 0 0
1:54 am 01:54 Clear 1 -17.2 -4 -20 79 79 SSW 5 7 30.47 1032 10 16.0934 0 0
2:54 am 02:54 Clear 2 -16.7 -2 -18.9 83 83 SW 3 6 30.5 1033 10 16.0934 0 0
3:54 am 03:54 Clear 4 -15.6 -2 -18.9 76 76 WSW 3 6 30.53 1034 10 16.0934 0 0
4:54 am 04:54 Clear 9 -12.8 2 -16.7 73 73 NW 7 11 30.54 1034 10 16.0934 0 0
5:54 am 05:54 Clear 10 -12.2 4 -15.6 76 76 NW 5 7 30.56 1035 10 16.0934 0 0
6:54 am 06:54 Mostly Clear 10 -12.2 4 -15.6 76 76 NNW 9 15 30.61 1037 10 16.0934 0 0
7:54 am 07:54 Sunny 9 -12.8 3 -16.1 77 77 N 7 11 30.63 1037 10 16.0934 0 0
8:54 am 08:54 Sunny 10 -12.2 3 -16.1 73 73 NNW 13 20 30.66 1038 10 16.0934 0 0
9:54 am 09:54 Sunny 12 -11.1 4 -15.6 70 70 N 13 20 30.71 1040 10 16.0934 0 0
10:54 am 10:54 Sunny 15 -9.4 6 -14.4 67 67 N 13 20 30.74 1041 10 16.0934 0 0
11:54 am 11:54 Sunny 16 -8.9 6 -14.4 65 65 N 9 15 30.74 1041 10 16.0934 0 0
12:54 pm 12:54 Sunny 18 -7.8 7 -13.9 62 62 N 9 15 30.73 1041 10 16.0934 0 0
1:54 pm 13:54 Sunny 19 -7.2 8 -13.3 62 62 N 8 13 30.73 1041 10 16.0934 0 0
2:54 pm 14:54 Sunny 20 -6.7 8 -13.3 60 60 N 8 13 30.74 1041 10 16.0934 0 0
3:54 pm 15:54 Sunny 20 -6.7 9 -12.8 62 62 N 10 17 30.76 1042 10 16.0934 0 0
4:54 pm 16:54 Sunny 16 -8.9 7 -13.9 67 67 NNE 5 7 30.76 1042 10 16.0934 0 0
5:54 pm 17:54 Clear 11 -11.7 3 -16.1 70 70 ENE 5 7 30.76 1042 10 16.0934 0 0
6:54 pm 18:54 Clear 8 -13.3 4 -15.6 83 83 Calm 30.77 1042 10 16.0934 0 0
7:54 pm 19:54 Clear 4 -15.6 0 -17.8 83 83 N 5 7 30.78 1042 10 16.0934 0 0
8:54 pm 20:54 Clear 3 -16.1 0 -17.8 87 87 N 3 6 30.78 1042 10 16.0934 0 0
9:54 pm 21:54 Clear 3 -16.1 -2 -18.9 79 79 Calm 30.78 1042 10 16.0934 0 0
10:54 pm 22:54 Clear 2 -16.7 -2 -18.9 83 83 Calm 30.76 1042 10 16.0934 0 0
11:54 pm 23:54 Clear 1 -17.2 -4 -20 79 79 Calm 30.73 1041 10 16.0934 0 0

Powered by AerisWeather